K5NCO Weather Reports


Display with metric or nautical units.
time (UTC)temp
F
wind
direction
speed
MPH
gust
MPH
rain 1hr
in
rain 24hr
in
rain mn
in
humidity
%
barometer
mb
20260831033824 87 156 6.0 9.0 0.00 0.00 0.00 61 1016.7
20260831033319 87 171 11.0 15.0 0.00 0.00 0.00 60 1016.7
20260831032814 88 173 4.0 4.0 0.00 0.00 0.00 61 1016.8
20260831032309 88 128 9.0 10.0 0.00 0.00 0.00 60 1016.7
20260831031804 88 93 4.0 7.0 0.00 0.00 0.00 60 1016.7
20260831031303 88 96 7.0 13.0 0.00 0.00 0.00 60 1016.4
20260831030759 88 235 11.0 16.0 0.00 0.00 0.00 60 1016.5
20260831030256 88 187 3.0 4.0 0.00 0.00 0.00 60 1016.4
20260831025756 88 157 8.0 10.0 0.00 0.00 0.00 60 1016.2
20260831025250 88 108 4.0 6.0 0.00 0.00 0.00 61 1016.2
20260831024746 88 125 6.0 7.0 0.00 0.00 0.00 61 1016.2
20260831024245 88 144 8.0 10.0 0.00 0.00 0.00 60 1016.0
20260831023744 89 82 10.0 11.0 0.00 0.00 0.00 60 1016.2
20260831023243 89 88 5.0 7.0 0.00 0.00 0.00 59 1015.9
20260831022738 89 150 4.0 4.0 0.00 0.00 0.00 59 1015.9
20260831022237 89 127 7.0 9.0 0.00 0.00 0.00 58 1016.0
20260831021733 89 132 8.0 10.0 0.00 0.00 0.00 57 1015.8
20260831021232 90 134 4.0 7.0 0.00 0.00 0.00 56 1015.7
20260831020729 90 88 6.0 8.0 0.00 0.00 0.00 55 1015.6
20260831020228 90 94 11.0 15.0 0.00 0.00 0.00 54 1015.6
20260831015723 91 88 8.0 10.0 0.00 0.00 0.00 52 1015.6
20260831015219 91 129 2.0 3.0 0.00 0.00 0.00 48 1015.5
20260831014714 91 98 3.0 4.0 0.00 0.00 0.00 47 1014.9
20260831014209 92 77 4.0 7.0 0.00 0.00 0.00 46 1015.0
20260831013704 92 104 6.0 7.0 0.00 0.00 0.00 46 1015.0
20260831013158 92 100 2.0 3.0 0.00 0.00 0.00 46 1015.0
20260831012653 92 93 4.0 4.0 0.00 0.00 0.00 45 1014.8
20260831012149 92 87 0.0 2.0 0.00 0.00 0.00 45 1014.8
20260831011648 92 63 4.0 6.0 0.00 0.00 0.00 45 1014.9
20260831011144 93 128 4.0 6.0 0.00 0.00 0.00 45 1014.7
20260831010640 93 99 5.0 6.0 0.00 0.00 0.00 44 1014.7
20260831010135 93 136 2.0 2.0 0.00 0.00 0.00 44 1014.9
20260831005634 93 78 4.0 4.0 0.00 0.00 0.00 44 1014.7
20260831005130 93 97 4.0 6.0 0.00 0.00 0.00 44 1014.8
20260831004626 94 105 4.0 6.0 0.00 0.00 0.00 44 1014.8
20260831004121 94 106 2.0 3.0 0.00 0.00 0.00 44 1014.7
20260831003617 94 49 4.0 6.0 0.00 0.00 0.00 43 1014.7
20260831003113 94 118 2.0 4.0 0.00 0.00 0.00 43 1014.7
20260831002611 95 95 6.0 8.0 0.00 0.00 0.00 43 1014.4
20260831002107 95 132 4.0 7.0 0.00 0.00 0.00 42 1014.6
20260831001602 95 64 5.0 7.0 0.00 0.00 0.00 42 1014.5
20260831001058 95 90 3.0 4.0 0.00 0.00 0.00 42 1014.6
20260831000555 95 91 5.0 6.0 0.00 0.00 0.00 42 1014.6
20260831000054 95 77 0.0 1.0 0.00 0.00 0.00 41 1014.6
20260830235553 95 82 9.0 11.0 0.00 0.00 0.00 41 1014.6
20260830235048 95 39 3.0 4.0 0.00 0.00 0.00 42 1014.5
20260830234543 95 137 3.0 3.0 0.00 0.00 0.00 42 1014.7
20260830234038 95 76 4.0 6.0 0.00 0.00 0.00 42 1014.7
20260830233533 95 119 6.0 8.0 0.00 0.00 0.00 43 1014.7
20260830233029 95 59 3.0 4.0 0.00 0.00 0.00 43 1014.7
20260830232525 95 138 0.0 1.0 0.00 0.00 0.00 43 1014.5
20260830232021 96 196 1.0 1.0 0.00 0.00 0.00 42 1014.7
20260830231517 96 178 4.0 6.0 0.00 0.00 0.00 42 1014.9
20260830231016 96 135 6.0 7.0 0.00 0.00 0.00 42 1014.7
20260830230511 96 117 6.0 8.0 0.00 0.00 0.00 42 1014.8
20260830230011 96 102 5.0 6.0 0.00 0.00 0.00 42 1014.7
20260830225507 95 64 2.0 2.0 0.00 0.00 0.00 42 1014.7
20260830225006 95 99 6.0 8.0 0.00 0.00 0.00 44 1014.8
20260830224504 95 92 4.0 7.0 0.00 0.00 0.00 43 1014.8
20260830224001 96 140 11.0 13.0 0.00 0.00 0.00 43 1014.8
20260830223458 96 136 2.0 3.0 0.00 0.00 0.00 43 1014.9
20260830222957 96 74 2.0 2.0 0.00 0.00 0.00 42 1014.7
20260830222452 96 174 0.0 1.0 0.00 0.00 0.00 42 1014.6
20260830221948 97 201 3.0 4.0 0.00 0.00 0.00 40 1014.7
20260830221444 97 229 7.0 9.0 0.00 0.00 0.00 41 1014.8
20260830220940 96 99 2.0 3.0 0.00 0.00 0.00 43 1014.8
20260830220440 96 92 7.0 9.0 0.00 0.00 0.00 43 1014.9
20260830215937 98 138 6.0 9.0 0.00 0.00 0.00 42 1015.0
20260830215432 96 234 0.0 0.0 0.00 0.00 0.00 41 1015.0
20260830214926 96 115 4.0 6.0 0.00 0.00 0.00 41 1015.0
20260830214417 95 133 6.0 7.0 0.00 0.00 0.00 43 1015.1
20260830213916 95 149 5.0 7.0 0.00 0.00 0.00 44 1015.1
20260830213412 96 120 5.0 7.0 0.00 0.00 0.00 43 1015.3
20260830212907 96 154 6.0 8.0 0.00 0.00 0.00 42 1015.3
20260830212403 95 106 4.0 9.0 0.00 0.00 0.00 43 1015.4
20260830211903 96 133 10.0 13.0 0.00 0.00 0.00 43 1015.5
20260830211356 96 85 7.0 10.0 0.00 0.00 0.00 43 1015.5
20260830210852 96 105 6.0 8.0 0.00 0.00 0.00 45 1015.5
20260830210351 95 104 6.0 8.0 0.00 0.00 0.00 44 1015.6
20260830205849 95 61 6.0 10.0 0.00 0.00 0.00 44 1015.7
20260830205349 94 62 6.0 8.0 0.00 0.00 0.00 46 1016.1
20260830204844 95 73 4.0 6.0 0.00 0.00 0.00 44 1016.0
20260830204343 95 168 7.0 9.0 0.00 0.00 0.00 45 1016.3
20260830203838 95 171 4.0 6.0 0.00 0.00 0.00 45 1016.0
20260830203335 95 184 7.0 9.0 0.00 0.00 0.00 45 1016.1
20260830202834 95 128 8.0 10.0 0.00 0.00 0.00 45 1016.1
20260830202330 95 179 0.0 1.0 0.00 0.00 0.00 44 1016.2
20260830201825 95 168 1.0 3.0 0.00 0.00 0.00 46 1016.6
20260830201319 94 109 10.0 13.0 0.00 0.00 0.00 45 1016.4
20260830200814 93 196 4.0 7.0 0.00 0.00 0.00 47 1016.5
20260830200314 94 104 6.0 9.0 0.00 0.00 0.00 47 1016.7
20260830195809 93 216 2.0 3.0 0.00 0.00 0.00 50 1016.7
20260830195309 93 189 8.0 9.0 0.00 0.00 0.00 48 1016.8
20260830194807 94 126 7.0 10.0 0.00 0.00 0.00 48 1016.7
20260830194306 93 176 7.0 9.0 0.00 0.00 0.00 49 1016.9
20260830193801 93 99 4.0 7.0 0.00 0.00 0.00 50 1016.9
20260830193255 93 262 1.0 2.0 0.00 0.00 0.00 50 1017.1
20260830192746 94 223 9.0 10.0 0.00 0.00 0.00 50 1017.1
20260830192246 93 172 4.0 6.0 0.00 0.00 0.00 51 1017.1
20260830191742 93 125 6.0 9.0 0.00 0.00 0.00 49 1017.4
20260830191241 93 115 10.0 15.0 0.00 0.00 0.00 51 1017.5
20260830190737 93 185 4.0 4.0 0.00 0.00 0.00 52 1017.4
20260830190232 93 87 0.0 1.0 0.00 0.00 0.00 53 1017.6
20260830185730 93 143 7.0 8.0 0.00 0.00 0.00 49 1017.6
20260830185226 93 159 8.0 11.0 0.00 0.00 0.00 50 1017.6
20260830184725 92 117 6.0 8.0 0.00 0.00 0.00 53 1017.7
20260830184225 91 218 0.0 1.0 0.00 0.00 0.00 54 1017.7
20260830183721 92 133 8.0 10.0 0.00 0.00 0.00 54 1017.9
20260830183215 91 116 2.0 3.0 0.00 0.00 0.00 54 1018.2
20260830182710 91 94 0.0 1.0 0.00 0.00 0.00 53 1017.9
20260830182206 92 87 5.0 6.0 0.00 0.00 0.00 53 1017.8
20260830181702 91 108 3.0 4.0 0.00 0.00 0.00 55 1018.2
20260830181156 91 149 4.0 6.0 0.00 0.00 0.00 55 1018.3
20260830180655 90 110 6.0 7.0 0.00 0.00 0.00 58 1018.5
20260830180151 90 203 8.0 10.0 0.00 0.00 0.00 57 1018.7
20260830175649 90 117 9.0 13.0 0.00 0.00 0.00 57 1018.5
20260830175145 89 208 2.0 2.0 0.00 0.00 0.00 59 1018.9
20260830174640 90 130 5.0 6.0 0.00 0.00 0.00 58 1019.0
20260830174136 89 176 10.0 11.0 0.00 0.00 0.00 58 1019.2
20260830173630 89 134 3.0 6.0 0.00 0.00 0.00 59 1019.1
20260830173125 89 180 7.0 10.0 0.00 0.00 0.00 59 1019.3
20260830172622 89 163 2.0 3.0 0.00 0.00 0.00 59 1019.0
20260830172119 90 123 6.0 8.0 0.00 0.00 0.00 58 1019.3
20260830171613 89 218 5.0 7.0 0.00 0.00 0.00 60 1019.2
20260830171113 89 115 4.0 6.0 0.00 0.00 0.00 62 1019.4
20260830170608 88 198 4.0 4.0 0.00 0.00 0.00 63 1019.2
20260830170107 89 151 5.0 6.0 0.00 0.00 0.00 62 1019.4
20260830165602 88 159 3.0 3.0 0.00 0.00 0.00 66 1019.6
20260830165057 87 159 7.0 8.0 0.00 0.00 0.00 66 1019.6
20260830164554 87 192 7.0 8.0 0.00 0.00 0.00 66 1019.5
20260830164050 87 209 5.0 6.0 0.00 0.00 0.00 65 1019.6
20260830163541 87 159 9.0 11.0 0.00 0.00 0.00 65 1019.6
20260830163040 87 172 7.0 8.0 0.00 0.00 0.00 65 1019.7
20260830162536 87 200 5.0 7.0 0.00 0.00 0.00 67 1019.5
20260830162031 86 73 2.0 2.0 0.00 0.00 0.00 67 1019.5
20260830161526 87 87 4.0 6.0 0.00 0.00 0.00 69 1019.8
20260830161026 86 92 4.0 4.0 0.00 0.00 0.00 68 1019.6
20260830160522 86 117 6.0 8.0 0.00 0.00 0.00 68 1019.6
20260830160017 87 315 1.0 1.0 0.00 0.00 0.00 68 1019.6
20260830155513 86 192 8.0 10.0 0.00 0.00 0.00 68 1019.8
20260830155009 85 143 7.0 10.0 0.00 0.00 0.00 69 1019.4
20260830154504 86 201 3.0 4.0 0.00 0.00 0.00 69 1019.5
20260830154000 85 194 4.0 6.0 0.00 0.00 0.00 70 1019.5
20260830153455 85 134 5.0 7.0 0.00 0.00 0.00 70 1019.5
20260830152954 85 159 6.0 8.0 0.00 0.00 0.00 71 1019.6
20260830152450 85 209 3.0 3.0 0.00 0.00 0.00 71 1019.3
20260830151949 84 170 6.0 7.0 0.00 0.00 0.00 72 1019.1
20260830151443 84 165 4.0 6.0 0.00 0.00 0.00 74 1019.4
20260830150938 84 148 3.0 3.0 0.00 0.00 0.00 74 1019.3
20260830150438 84 159 7.0 8.0 0.00 0.00 0.00 74 1019.4
20260830145937 83 219 4.0 6.0 0.00 0.00 0.00 76 1019.4
20260830145432 83 229 3.0 3.0 0.00 0.00 0.00 77 1019.1
20260830144928 83 134 9.0 10.0 0.00 0.00 0.00 77 1019.4
20260830144424 82 220 5.0 8.0 0.00 0.00 0.00 78 1019.4
20260830143919 82 182 10.0 10.0 0.00 0.00 0.00 79 1019.3
20260830143414 81 231 5.0 6.0 0.00 0.00 0.00 80 1019.5
20260830142913 81 187 7.0 8.0 0.00 0.00 0.00 81 1019.4
20260830142409 81 205 8.0 10.0 0.00 0.00 0.00 80 1019.5
20260830141903 81 205 6.0 7.0 0.00 0.00 0.00 80 1019.4
20260830141359 81 183 9.0 11.0 0.00 0.00 0.00 80 1019.5
20260830140854 81 199 5.0 6.0 0.00 0.00 0.00 81 1019.3
20260830140349 80 158 4.0 4.0 0.00 0.00 0.00 82 1019.2
20260830135848 80 228 2.0 4.0 0.00 0.00 0.00 83 1019.0
20260830135344 80 185 6.0 7.0 0.00 0.00 0.00 83 1019.3
20260830134839 79 192 12.0 16.0 0.00 0.00 0.00 83 1019.2
20260830134334 79 184 7.0 9.0 0.00 0.00 0.00 85 1019.3
20260830133830 79 165 4.0 6.0 0.00 0.00 0.00 86 1019.2
20260830133325 78 224 5.0 7.0 0.00 0.00 0.00 86 1019.0
20260830132820 78 215 4.0 6.0 0.00 0.00 0.00 87 1019.0
20260830132316 78 197 6.0 7.0 0.00 0.00 0.00 87 1019.1
20260830131815 78 182 3.0 6.0 0.00 0.00 0.00 87 1019.1
20260830131310 78 207 6.0 7.0 0.00 0.00 0.00 87 1018.9
20260830130805 78 190 3.0 4.0 0.00 0.00 0.00 87 1018.7
20260830130300 77 183 4.0 6.0 0.00 0.00 0.00 88 1018.9
20260830125759 77 218 6.0 7.0 0.00 0.00 0.00 88 1018.9
20260830125255 77 250 4.0 4.0 0.00 0.00 0.00 88 1018.6
20260830124752 77 211 5.0 6.0 0.00 0.00 0.00 88 1018.7
20260830124247 77 179 3.0 3.0 0.00 0.00 0.00 89 1018.7
20260830123744 77 205 2.0 4.0 0.00 0.00 0.00 89 1018.6
20260830123240 77 194 2.0 3.0 0.00 0.00 0.00 89 1018.5
20260830122737 77 186 3.0 3.0 0.00 0.00 0.00 89 1018.6
20260830122232 77 202 3.0 4.0 0.00 0.00 0.00 89 1018.5
20260830121728 76 198 3.0 3.0 0.00 0.00 0.00 89 1018.7
20260830121227 76 204 5.0 6.0 0.00 0.00 0.00 89 1018.5
20260830120722 77 186 2.0 3.0 0.00 0.00 0.00 89 1018.4
20260830120218 77 181 3.0 3.0 0.00 0.00 0.00 89 1018.4
20260830115715 77 236 4.0 4.0 0.00 0.00 0.00 89 1018.4
20260830115210 77 191 2.0 3.0 0.00 0.00 0.00 88 1017.9
20260830114706 77 194 3.0 3.0 0.00 0.00 0.00 88 1018.1
20260830114206 77 198 4.0 6.0 0.00 0.00 0.00 88 1018.1
20260830113702 77 206 2.0 3.0 0.00 0.00 0.00 88 1018.2
20260830113156 77 224 6.0 7.0 0.00 0.00 0.00 87 1018.2
20260830112653 77 199 1.0 2.0 0.00 0.00 0.00 87 1018.2
20260830112148 77 194 2.0 2.0 0.00 0.00 0.00 87 1018.2
20260830111644 77 204 6.0 7.0 0.00 0.00 0.00 86 1018.1
20260830111140 77 186 6.0 7.0 0.00 0.00 0.00 86 1018.2
20260830110634 77 207 2.0 4.0 0.00 0.00 0.00 85 1018.2
20260830110130 77 169 2.0 2.0 0.00 0.00 0.00 85 1017.9
20260830105630 77 175 2.0 3.0 0.00 0.00 0.00 84 1018.1
20260830105126 77 220 3.0 3.0 0.00 0.00 0.00 84 1017.9
20260830104622 78 204 2.0 3.0 0.00 0.00 0.00 83 1017.9
20260830104119 78 199 4.0 4.0 0.00 0.00 0.00 83 1017.8
20260830103618 78 204 4.0 6.0 0.00 0.00 0.00 83 1018.1
20260830103113 78 167 5.0 7.0 0.00 0.00 0.00 82 1017.7
20260830102612 78 191 2.0 3.0 0.00 0.00 0.00 82 1017.7
20260830102108 78 157 2.0 3.0 0.00 0.00 0.00 82 1017.7
20260830101603 78 197 4.0 6.0 0.00 0.00 0.00 81 1017.7
20260830101058 78 150 4.0 4.0 0.00 0.00 0.00 81 1017.6
20260830100557 78 220 3.0 3.0 0.00 0.00 0.00 80 1017.7
20260830100057 78 180 2.0 3.0 0.00 0.00 0.00 80 1017.6
20260830095551 78 182 4.0 4.0 0.00 0.00 0.00 80 1017.7
20260830095048 78 189 5.0 6.0 0.00 0.00 0.00 79 1017.8
20260830094543 79 221 4.0 4.0 0.00 0.00 0.00 78 1017.6
20260830094038 79 212 5.0 7.0 0.00 0.00 0.00 77 1017.6
20260830093533 79 181 7.0 8.0 0.00 0.00 0.00 77 1017.6
20260830093030 79 204 4.0 6.0 0.00 0.00 0.00 76 1017.5
20260830092524 79 162 3.0 3.0 0.00 0.00 0.00 76 1017.4
20260830092022 80 193 3.0 3.0 0.00 0.00 0.00 76 1017.6
20260830091516 80 188 6.0 7.0 0.00 0.00 0.00 75 1017.6
20260830091015 80 178 6.0 7.0 0.00 0.00 0.00 75 1017.7
20260830090510 80 200 2.0 3.0 0.00 0.00 0.00 75 1017.5
20260830090005 80 209 3.0 3.0 0.00 0.00 0.00 75 1017.7
20260830085501 80 179 4.0 4.0 0.00 0.00 0.00 75 1017.7
20260830084956 80 222 4.0 6.0 0.00 0.00 0.00 75 1017.6
20260830084451 80 220 3.0 3.0 0.00 0.00 0.00 75 1017.7
20260830083946 80 173 2.0 2.0 0.00 0.00 0.00 75 1017.8
20260830083442 80 173 2.0 3.0 0.00 0.00 0.00 74 1017.7
20260830082941 80 176 2.0 2.0 0.00 0.00 0.00 74 1017.8
20260830082436 81 203 5.0 6.0 0.00 0.00 0.00 74 1017.8
20260830081931 81 193 2.0 3.0 0.00 0.00 0.00 74 1017.7
20260830081426 81 135 3.0 3.0 0.00 0.00 0.00 74 1017.8
20260830080920 81 204 6.0 8.0 0.00 0.00 0.00 74 1017.8
20260830080416 81 173 3.0 3.0 0.00 0.00 0.00 74 1017.9
20260830075915 81 166 6.0 7.0 0.00 0.00 0.00 74 1018.1
20260830075410 81 163 4.0 6.0 0.00 0.00 0.00 73 1018.1
20260830074906 81 155 3.0 4.0 0.00 0.00 0.00 74 1018.2
20260830074401 81 182 2.0 2.0 0.00 0.00 0.00 73 1017.8
20260830073857 81 203 3.0 4.0 0.00 0.00 0.00 73 1017.9
20260830073353 81 198 4.0 7.0 0.00 0.00 0.00 73 1018.1
20260830072848 81 135 6.0 8.0 0.00 0.00 0.00 72 1017.9
20260830072343 82 201 9.0 10.0 0.00 0.00 0.00 72 1018.1
20260830071838 82 176 4.0 6.0 0.00 0.00 0.00 72 1018.3
20260830071338 82 159 6.0 7.0 0.00 0.00 0.00 72 1018.4
20260830070836 82 145 6.0 8.0 0.00 0.00 0.00 71 1018.2
20260830070332 82 135 3.0 4.0 0.00 0.00 0.00 71 1018.2
20260830065830 82 162 1.0 2.0 0.00 0.00 0.00 71 1018.3
20260830065325 82 162 5.0 7.0 0.00 0.00 0.00 71 1018.3
20260830064823 83 144 3.0 4.0 0.00 0.00 0.00 71 1018.2
20260830064319 83 147 4.0 6.0 0.00 0.00 0.00 71 1018.4
20260830063813 83 171 4.0 4.0 0.00 0.00 0.00 71 1018.2
20260830063308 83 165 5.0 7.0 0.00 0.00 0.00 70 1018.1
20260830062808 83 144 5.0 6.0 0.00 0.00 0.00 70 1018.2
20260830062305 84 164 2.0 3.0 0.00 0.00 0.00 70 1018.2
20260830061756 84 151 4.0 4.0 0.00 0.00 0.00 70 1018.2
20260830061252 84 141 6.0 7.0 0.00 0.00 0.00 69 1017.9
20260830060749 84 155 7.0 8.0 0.00 0.00 0.00 69 1018.1
20260830060245 84 213 2.0 3.0 0.00 0.00 0.00 68 1018.1
20260830055740 84 250 5.0 8.0 0.00 0.00 0.00 68 1018.2
20260830055236 84 192 7.0 8.0 0.00 0.00 0.00 68 1017.9
20260830054730 84 134 4.0 4.0 0.00 0.00 0.00 68 1018.1
20260830054226 85 178 4.0 6.0 0.00 0.00 0.00 68 1017.9
20260830053722 85 197 6.0 7.0 0.00 0.00 0.00 68 1017.9
20260830053221 85 171 4.0 6.0 0.00 0.00 0.00 68 1017.8
20260830052716 85 163 4.0 6.0 0.00 0.00 0.00 68 1017.8
20260830052212 85 168 8.0 10.0 0.00 0.00 0.00 68 1018.1
20260830051711 85 149 2.0 3.0 0.00 0.00 0.00 70 1017.9
20260830051207 85 168 3.0 3.0 0.00 0.00 0.00 70 1017.9
20260830050705 85 121 5.0 7.0 0.00 0.00 0.00 69 1017.9
20260830050202 85 111 3.0 3.0 0.00 0.00 0.00 69 1017.8
20260830045659 85 111 2.0 3.0 0.00 0.00 0.00 69 1017.9
20260830045155 85 102 3.0 6.0 0.00 0.00 0.00 69 1017.9
20260830044653 86 149 3.0 4.0 0.00 0.00 0.00 69 1017.8
20260830044149 86 143 7.0 9.0 0.00 0.00 0.00 68 1017.7
20260830043644 86 140 5.0 7.0 0.00 0.00 0.00 68 1017.7
20260830043143 86 192 4.0 4.0 0.00 0.00 0.00 68 1017.9
20260830042641 86 150 4.0 6.0 0.00 0.00 0.00 67 1017.8
20260830042136 86 130 5.0 6.0 0.00 0.00 0.00 67 1017.9
20260830041635 86 164 3.0 4.0 0.00 0.00 0.00 66 1017.8
20260830041134 86 111 4.0 7.0 0.00 0.00 0.00 66 1017.9
20260830040630 86 116 2.0 2.0 0.00 0.00 0.00 66 1018.2
20260830040126 86 146 4.0 6.0 0.00 0.00 0.00 65 1018.2
20260830035624 86 120 8.0 8.0 0.00 0.00 0.00 64 1017.9
20260830035119 86 174 5.0 6.0 0.00 0.00 0.00 64 1017.8
20260830034615 87 122 2.0 2.0 0.00 0.00 0.00 63 1017.8